Muscle Shoals, AL

2:58 PM CST on December 12, 2017 (GMT -0600)
Northwest Alabama Regional

Weather History for KMSL - March, 2012

Change the Weather History Date:

Thursday, March 1, 2012

  Actual Average Record
Temperature  
Mean Temperature 61 °F 49 °F  
Max Temperature 77 °F 60 °F 82 °F (1997)
Min Temperature 45 °F 39 °F 14 °F (1920)
Degree Days  
Heating Degree Days 4 16  
Month to date heating degree days 4 16  
Since 1 July heating degree days 2090 2551  
Growing Degree Days 10 (Base 50)    
Moisture  
Dew Point 40 °F    
Average Humidity 58    
Maximum Humidity 92    
Minimum Humidity 23    
Precipitation  
Precipitation 0.00 in 0.17 in 2.62 in (1922)
Month to date precipitation 0.00 0.17  
Year to date precipitation 9.66 9.44  
Snow  
Snow 0.00 in - - ()
Month to date snowfall 0.0  
Since 1 July snowfall 0.1  
Snow Depth 0.00 in    
Sea Level Pressure  
Sea Level Pressure 29.90 in    
Wind  
Wind Speed 4 mph (South)    
Max Wind Speed 13 mph    
Max Gust Speed 16 mph    
Visibility 9 miles    
Events      
T = Trace of Precipitation, MM = Missing Value Source: NWS Daily Summary

Daily Weather History Graph

Daily Weather History Graph

Search for Another Location

Airport or City:

Trip Planner

Search our weather history database for the weather conditions in past years. The results will help you decide how hot, cold, wet, or windy it might be!

Date:

Astronomy

Mar. 01, 2012 Rise Set
Actual Time 6:19 AM CST 5:46 PM CST
Civil Twilight 5:53 AM CST 6:12 PM CST
Nautical Twilight 5:24 AM CST 6:41 PM CST
Astronomical Twilight 4:55 AM CST 7:10 PM CST
Moon 11:17 AM CST (3/1) 1:06 AM CST (3/1)
Length of Visible Light 12h 18m
Length of Day
11h 27m
First Quarter, 57% of the Moon is Illuminated
Mar 1
First Quarter
Mar 8
Full
Mar 14
Last Quarter
Mar 22
New
Mar 30
First Quarter

Hourly Weather History & Observations

Time (CST) Temp. Dew Point Humidity Pressure Visibility Wind Dir Wind Speed Gust Speed Precip Events Conditions
12:53 AM 64.0 °F 57.0 °F 78% 29.93 in 10.0 mi NNW 6.9 mph - N/A   Clear
1:53 AM 59.0 °F 43.0 °F 55% 29.93 in 10.0 mi NNW 6.9 mph - N/A   Clear
2:53 AM 57.0 °F 39.0 °F 51% 29.93 in 10.0 mi NW 4.6 mph - N/A   Clear
3:53 AM 53.1 °F 37.9 °F 57% 29.95 in 10.0 mi Calm Calm - N/A   Clear
4:53 AM 50.0 °F 35.6 °F 58% 29.98 in 10.0 mi Calm Calm - N/A   Clear
5:53 AM 44.6 °F 42.8 °F 93% 29.99 in 10.0 mi Calm Calm - N/A   Clear
6:53 AM 46.4 °F 41.0 °F 81% 29.99 in 10.0 mi Calm Calm - N/A   Clear
7:53 AM 53.1 °F 42.1 °F 66% 30.00 in 10.0 mi Calm Calm - N/A   Clear
8:53 AM 59.0 °F 35.1 °F 41% 29.99 in 10.0 mi Calm Calm - N/A   Clear
9:53 AM 64.0 °F 30.9 °F 29% 29.98 in 10.0 mi Calm Calm - N/A   Clear
10:08 AM 64.4 °F 30.2 °F 28% 29.99 in 1.5 mi Calm Calm - N/A   Haze
10:12 AM 64.4 °F 30.2 °F 28% 29.99 in 4.0 mi Calm Calm - N/A   Haze
10:53 AM 66.0 °F 33.1 °F 29% 29.98 in - Calm Calm - N/A   Clear
11:53 AM 68.0 °F 33.1 °F 27% 29.94 in 10.0 mi SSE 5.8 mph - N/A   Clear
12:53 PM 71.1 °F 34.0 °F 26% 29.89 in 10.0 mi SE 3.5 mph - N/A   Clear
1:53 PM 73.4 °F 35.6 °F 25% 29.88 in 10.0 mi NE 4.6 mph - N/A   Clear
2:53 PM 75.2 °F 35.6 °F 24% 29.86 in 10.0 mi WNW 3.5 mph - N/A   Clear
3:53 PM 75.9 °F 35.1 °F 23% 29.84 in 10.0 mi WSW 8.1 mph - N/A   Clear
4:53 PM 73.0 °F 39.9 °F 30% 29.83 in 10.0 mi WSW 9.2 mph - N/A   Clear
5:53 PM 71.1 °F 41.0 °F 34% 29.83 in 10.0 mi SW 3.5 mph - N/A   Partly Cloudy
6:53 PM 64.0 °F 44.1 °F 48% 29.82 in 10.0 mi Calm Calm - N/A   Clear
7:53 PM 61.0 °F 46.0 °F 58% 29.81 in 10.0 mi SE 4.6 mph - N/A   Clear
8:53 PM 61.0 °F 46.9 °F 60% 29.81 in 10.0 mi SE 4.6 mph - N/A   Partly Cloudy
9:53 PM 62.1 °F 48.9 °F 62% 29.79 in 10.0 mi SE 5.8 mph - N/A   Clear
10:53 PM 62.1 °F 52.0 °F 70% 29.78 in 10.0 mi SE 5.8 mph - N/A   Clear
11:53 PM 66.9 °F 61.0 °F 81% 29.77 in 10.0 mi South 10.4 mph - N/A   Partly Cloudy